Location: Newark
(48.1500°N, 2.9667°W)
Time: 00:40:38
(UTC+00:00)

A-11 Canister half - Pass Details

Date: 25 January 2020
Orbit: 1524 x 1684 km, 47.3° (Epoch: 26 February)

Event Time Altitude Azimuth Distance (km) Brightness Sun altitude
Rises 00:51:15 0° 290° (WNW) 4,783 - -60.5°
Reaches altitude 10° 00:54:45 10° 281° (W) 3,820 - -60.3°
Maximum altitude 01:02:51 31° 224° (SW) 2,575 - -59.9°
Drops below altitude 10° 01:11:08 10° 168° (SSE) 3,906 - -59.4°
Sets 01:14:47 0° 158° (SSE) 4,906 - -59.2°
